This demonstration page uses our WeatherBlox Daily Observations layout. Learn more.

Left ArrowRight Arrow

Hourly Observations for November 1, 2021

Temp ( °F °C ) Dew Point ( °F °C ) Humidity (%) Winds ( mph kmh ) Pressure ( in mb ) Visibility ( mi km ) Precip ( " mm )
12:53 am 00:53 Clear 48 8.9 45 7.2 89 89 Calm 30.11 1020 10 16 0.00 0.00
1:53 am 01:53 Clear 47 8.3 44 6.7 90 90 Calm 30.11 1020 10 16 0.00 0.00
2:53 am 02:53 Clear 48 8.9 46 7.8 93 93 Calm 30.11 1020 10 16 0.00 0.00
3:53 am 03:53 Clear 48 8.9 45 7.2 89 89 N 5 7 30.11 1020 10 16 0.00 0.00
4:53 am 04:53 Clear 47 8.3 44 6.7 90 90 NE 3 6 30.12 1020 10 16 0.00 0.00
5:53 am 05:53 Clear 47 8.3 44 6.7 90 90 Calm 30.14 1021 10 16 0.00 0.00
6:53 am 06:53 Clear 46 7.8 43 6.1 89 89 Calm 30.16 1021 10 16 0.00 0.00
7:53 am 07:53 Clear 43 6.1 41 5 93 93 Calm 30.18 1022 10 16 0.00 0.00
8:53 am 08:53 Sunny 47 8.3 45 7.2 93 93 Calm 30.20 1023 7 11 0.00 0.00
10:53 am 10:53 Sunny 58 14.4 48 8.9 70 70 E 3 6 30.23 1024 10 16 0.00 0.00
11:53 am 11:53 Sunny 63 17.2 47 8.3 56 56 ENE 6 9 30.23 1024 10 16 0.00 0.00
12:53 pm 12:53 Sunny 66 18.9 47 8.3 50 50 NNE 5 7 30.22 1024 10 16 0.00 0.00
1:53 pm 13:53 Sunny 67 19.4 48 8.9 51 51 NNW 5 7 30.19 1023 10 16 0.00 0.00
2:53 pm 14:53 Sunny 69 20.6 47 8.3 45 45 Calm 30.17 1022 10 16 0.00 0.00
3:53 pm 15:53 Sunny 70 21.1 48 8.9 46 46 Calm 30.16 1021 10 16 0.00 0.00
4:53 pm 16:53 Sunny 71 21.7 48 8.9 44 44 Calm 30.15 1021 10 16 0.00 0.00
5:53 pm 17:53 Sunny 69 20.6 47 8.3 45 45 NW 5 7 30.15 1021 10 16 0.00 0.00
6:53 pm 18:53 Clear 64 17.8 51 10.6 63 63 NNW 5 7 30.16 1021 10 16 0.00 0.00
7:53 pm 19:53 Clear 60 15.6 50 10 70 70 Calm 30.17 1022 10 16 0.00 0.00
8:53 pm 20:53 Clear 56 13.3 49 9.4 77 77 Calm 30.19 1023 10 16 0.00 0.00
9:53 pm 21:53 Clear 56 13.3 49 9.4 77 77 Calm 30.21 1023 10 16 0.00 0.00
10:53 pm 22:53 Clear 55 12.8 49 9.4 80 80 Calm 30.21 1023 10 16 0.00 0.00
11:53 pm 23:53 Clear 50 10 47 8.3 89 89 Calm 30.20 1023 10 16 0.00 0.00

Powered by AerisWeather